Starlink 33551

operational
NORAD ID: 62110 Int'l Des: 2024-220 Owner: SPXS Country: US Constellation: starlink
LEOCIRCULAR

Starlink 33551について

説明を読み込み中...

リアルタイム位置

3D地球を読み込み中...

次回通過

高度履歴

Altitude vs Time

uPlot chart will show altitude changes over time

軌道要素

1 62110U 24220Y 25258.99584610 .00022858 00000-0 83663-3 0 9998
2 62110 43.0040 112.1544 0002175 286.7601 73.3012 15.27617201 46475
Epoch: Sep 15, 2025 • Age: 44 hours

現在のステータス

高度 482.1 km
速度 7.63 km/s
衛星直下点 -3.00°S, 164.34°E
打ち上げ日 Nov 25, 2024
運用期間 0.8 years
タイプ internet

技術仕様

分類 Payload
質量 530.00 kg
乾燥質量 500.00 kg
総質量 530.00 kg
長さ 0.30 m
直径 4.10 m
スパン 29.00 m
形状 Box + pan
製造者 SPXS
バスタイプ Starlink V2MO
フェーズステータス In Orbit
所有者/国 SPXS/US

大規模コンステレーション

Loading constellations...